CW8420 Weather Reports


Display with metric or nautical units.
time (UTC)temp
F
wind
direction
speed
MPH
gust
MPH
rain 1hr
in
rain 24hr
in
rain mn
in
humidity
%
barometer
mb
20210805141828 71 233 0.0 1.0 0.00 0.00 0.00 65 1023.6
20210805141616 71 233 0.0 1.0 0.00 0.00 0.00 66 1011.8
20210805141332 71 235 0.0 1.0 0.00 0.00 0.00 67 1023.6
20210805140834 70 233 0.0 1.0 0.00 0.00 0.00 69 1023.5
20210805140317 69 233 0.0 1.0 0.00 0.00 0.00 72 1023.5
20210805140102 68 233 0.0 0.0 0.00 0.00 0.00 72 1011.7
20210805135816 68 233 0.0 0.0 0.00 0.00 0.00 72 1023.4
20210805135317 68 233 0.0 0.0 0.00 0.00 0.00 72 1023.3
20210805134820 68 232 0.0 0.0 0.00 0.00 0.00 72 1023.3
20210805134514 68 233 0.0 0.0 0.00 0.00 0.00 72 1011.6
20210805134324 68 232 0.0 0.0 0.00 0.00 0.00 72 1023.3
20210805133828 68 233 0.0 0.0 0.00 0.00 0.00 72 1023.3
20210805133331 68 233 0.0 0.0 0.00 0.00 0.00 72 1023.4
20210805133015 67 233 0.0 0.0 0.00 0.00 0.00 72 1011.6
20210805132830 68 233 0.0 0.0 0.00 0.00 0.00 73 1023.3
20210805132332 68 233 0.0 0.0 0.00 0.00 0.00 73 1023.4
20210805131815 68 232 0.0 0.0 0.00 0.00 0.00 73 1023.5
20210805131618 67 232 0.0 0.0 0.00 0.00 0.00 72 1011.7
20210805131317 68 232 0.0 0.0 0.00 0.00 0.00 72 1023.3
20210805130819 68 232 0.0 0.0 0.00 0.00 0.00 72 1023.3
20210805130323 68 232 0.0 0.0 0.00 0.00 0.00 72 1023.3
20210805130105 67 232 0.0 0.0 0.00 0.00 0.00 72 1011.5
20210805125827 68 232 0.0 0.0 0.00 0.00 0.00 72 1023.3
20210805125330 68 232 0.0 0.0 0.00 0.00 0.00 71 1023.3
20210805124830 68 232 0.0 0.0 0.00 0.00 0.00 71 1023.3
20210805124612 68 232 0.0 0.0 0.00 0.00 0.00 71 1011.5
20210805124330 68 232 0.0 0.0 0.00 0.00 0.00 71 1023.3
20210805123830 68 232 0.0 5.0 0.00 0.00 0.00 70 1023.2
20210805123329 68 216 1.0 5.0 0.00 0.00 0.00 70 1023.1
20210805123017 68 229 0.0 5.0 0.00 0.00 0.00 70 1011.3
20210805122831 68 230 0.0 5.0 0.00 0.00 0.00 69 1023.0
20210805122322 68 212 0.0 0.0 0.00 0.00 0.00 69 1022.9
20210805121823 69 196 0.0 0.0 0.00 0.00 0.00 67 1022.9
20210805121638 68 163 0.0 0.0 0.00 0.00 0.00 67 1011.1
20210805121323 69 163 0.0 0.0 0.00 0.00 0.00 67 1022.9
20210805120825 69 163 0.0 0.0 0.00 0.00 0.00 67 1022.9
20210805120325 69 163 0.0 1.0 0.00 0.00 0.00 66 1022.8
20210805120235 68 163 0.0 1.0 0.00 0.00 0.00 66 1010.9
20210805115825 69 152 0.0 1.0 0.00 0.00 0.00 66 1022.8
20210805115325 69 156 0.0 1.0 0.00 0.00 0.00 66 1022.7
20210805114824 69 143 0.0 1.0 0.00 0.00 0.00 65 1022.5
20210805114557 69 142 0.0 1.0 0.00 0.00 0.00 65 1010.6
20210805114326 69 141 0.0 1.0 0.00 0.00 0.00 65 1022.4
20210805113827 69 136 0.0 1.0 0.00 0.00 0.00 66 1022.4
20210805113331 69 128 0.0 1.0 0.00 0.00 0.00 66 1022.3
20210805113025 69 155 0.0 1.0 0.00 0.00 0.00 66 1010.4
20210805112815 69 127 0.0 1.0 0.00 0.00 0.00 66 1022.1
20210805112320 69 152 0.0 1.0 0.00 0.00 0.00 67 1022.1
20210805111822 69 112 0.0 1.0 0.00 0.00 0.00 67 1022.1
20210805111625 69 113 0.0 1.0 0.00 0.00 0.00 67 1010.2
20210805111327 70 166 0.0 1.0 0.00 0.00 0.00 67 1022.0
20210805110828 70 150 0.0 1.0 0.00 0.00 0.00 67 1022.0
20210805110328 70 139 0.0 1.0 0.00 0.00 0.00 67 1021.9
20210805110139 70 146 0.0 0.0 0.00 0.00 0.00 67 1010.0
20210805105827 70 154 0.0 0.0 0.00 0.00 0.00 67 1021.9
20210805105325 71 155 0.0 1.0 0.00 0.00 0.00 67 1021.8
20210805104825 71 160 0.0 1.0 0.00 0.00 0.00 66 1021.8
20210805104607 71 160 0.0 1.0 0.00 0.00 0.00 66 1009.9
20210805104327 71 146 0.0 1.0 0.00 0.00 0.00 66 1021.8
20210805103830 72 162 0.0 1.0 0.00 0.00 0.00 65 1021.8
20210805103332 72 160 0.0 1.0 0.00 0.00 0.00 64 1021.9
20210805103004 72 157 0.0 1.0 0.00 0.00 0.00 63 1009.9
20210805102816 72 148 0.0 1.0 0.00 0.00 0.00 63 1021.9
20210805102319 72 191 0.0 7.0 0.00 0.00 0.00 63 1022.1
20210805101822 73 204 0.0 8.0 0.00 0.00 0.00 62 1022.0
20210805101625 72 162 2.0 12.0 0.00 0.00 0.00 62 1010.1
20210805101325 73 217 4.0 15.0 0.00 0.00 0.00 62 1022.1
20210805100829 73 213 7.0 16.0 0.00 0.00 0.00 61 1022.0
20210805100330 73 232 5.0 16.0 0.00 0.00 0.00 61 1021.9
20210805100056 72 200 6.0 16.0 0.00 0.00 0.00 61 1010.0
20210805095830 73 215 7.0 14.0 0.00 0.00 0.00 62 1021.9
20210805095333 73 230 6.0 12.0 0.00 0.00 0.00 62 1022.0
20210805094832 72 206 5.0 10.0 0.00 0.00 0.00 63 1022.1
20210805094529 72 209 3.0 10.0 0.00 0.00 0.00 63 1010.1
20210805094335 72 235 2.0 10.0 0.00 0.00 0.00 63 1022.1
20210805093817 72 191 2.0 9.0 0.00 0.00 0.00 62 1022.3
20210805093320 72 194 2.0 7.0 0.00 0.00 0.00 61 1022.2
20210805093017 72 203 0.0 2.0 0.00 0.00 0.00 61 1010.1
20210805092820 72 175 0.0 1.0 0.00 0.00 0.00 61 1022.2
20210805092319 72 158 0.0 1.0 0.00 0.00 0.00 61 1022.2
20210805091817 72 168 0.0 1.0 0.00 0.00 0.00 62 1022.2
20210805091616 72 160 0.0 2.0 0.00 0.00 0.00 63 1010.2
20210805091317 72 155 0.0 7.0 0.00 0.00 0.00 63 1022.2
20210805090818 72 173 0.0 7.0 0.00 0.00 0.00 63 1022.4
20210805090320 72 160 0.0 5.0 0.00 0.00 0.00 63 1022.6
20210805090053 72 154 0.0 5.0 0.00 0.00 0.00 63 1010.5
20210805085825 72 154 0.0 8.0 0.00 0.00 0.00 63 1022.6
20210805085325 72 182 0.0 8.0 0.00 0.00 0.00 63 1022.7
20210805084826 72 166 0.0 11.0 0.00 0.00 0.00 63 1022.7
20210805084540 72 135 4.0 11.0 0.00 0.00 0.00 63 1010.5
20210805084327 72 160 3.0 11.0 0.00 0.00 0.00 63 1022.7
20210805083826 72 179 1.0 11.0 0.00 0.00 0.00 63 1022.8
20210805083327 72 197 1.0 10.0 0.00 0.00 0.00 65 1022.9
20210805083136 71 185 0.0 10.0 0.00 0.00 0.00 66 1010.7
20210805082830 71 194 0.0 10.0 0.00 0.00 0.00 66 1022.9
20210805082331 71 177 1.0 9.0 0.00 0.00 0.00 68 1022.9
20210805081834 71 245 2.0 9.0 0.00 0.00 0.00 69 1023.0
20210805081532 71 225 5.0 9.0 0.00 0.00 0.00 69 1010.8
20210805081316 71 180 5.0 9.0 0.00 0.00 0.00 68 1023.0
20210805080818 71 160 1.0 11.0 0.00 0.00 0.00 68 1022.8
20210805080321 71 164 2.0 11.0 0.00 0.00 0.00 69 1022.6
20210805080033 70 148 0.0 11.0 0.00 0.00 0.00 69 1010.3
20210805075824 71 164 0.0 11.0 0.00 0.00 0.00 70 1022.6
20210805075327 71 160 1.0 8.0 0.00 0.00 0.00 70 1022.4
20210805074826 71 151 0.0 13.0 0.00 0.00 0.00 71 1022.4
20210805074627 71 208 6.0 13.0 0.00 0.00 0.00 71 1010.1
20210805074327 71 162 6.0 13.0 0.00 0.00 0.00 70 1022.3
20210805073826 72 151 4.0 11.0 0.00 0.00 0.00 69 1022.2
20210805073329 72 139 6.0 15.0 0.00 0.00 0.00 67 1022.1
20210805073106 72 164 4.0 16.0 0.00 0.00 0.00 67 1009.8
20210805072828 73 151 7.0 16.0 0.00 0.00 0.00 66 1022.1
20210805072325 73 144 6.0 16.0 0.00 0.00 0.00 63 1022.1
20210805071823 74 149 6.0 15.0 0.00 0.00 0.00 62 1022.0
20210805071513 74 158 7.0 15.0 0.00 0.00 0.00 61 1009.7
20210805071322 75 186 6.0 17.0 0.00 0.00 0.00 61 1022.0
20210805070822 76 137 8.0 17.0 0.00 0.00 0.00 61 1022.0
20210805070319 77 198 9.0 17.0 0.00 0.00 0.00 58 1022.1
20210805070112 77 125 8.0 17.0 0.00 0.00 0.00 57 1009.7
20210805065837 78 131 9.0 16.0 0.00 0.00 0.00 56 1021.9
20210805065333 78 156 8.0 16.0 0.00 0.00 0.00 56 1021.8
20210805064832 78 162 6.0 13.0 0.00 0.00 0.00 58 1021.8
20210805064527 77 135 3.0 13.0 0.00 0.00 0.00 60 1009.3
20210805064332 78 163 4.0 14.0 0.00 0.00 0.00 61 1021.4
20210805063815 77 164 6.0 14.0 0.00 0.00 0.00 64 1021.3
20210805063334 77 170 1.0 8.0 0.00 0.00 0.00 65 1021.3
20210805063017 77 202 1.0 8.0 0.00 0.00 0.00 65 1009.0
20210805062834 77 128 1.0 8.0 0.00 0.00 0.00 65 1021.5
20210805062333 77 139 1.0 8.0 0.00 0.00 0.00 65 1021.4
20210805061834 77 137 0.0 2.0 0.00 0.00 0.00 64 1021.2
20210805061713 77 151 0.0 3.0 0.00 0.00 0.00 64 1008.8
20210805061317 78 167 0.0 3.0 0.00 0.00 0.00 64 1021.0
20210805060818 78 160 0.0 3.0 0.00 0.00 0.00 64 1020.8
20210805060320 78 125 0.0 5.0 0.00 0.00 0.00 63 1020.7
20210805060109 77 131 0.0 9.0 0.00 0.00 0.00 63 1008.4
20210805055823 78 146 0.0 10.0 0.00 0.00 0.00 63 1020.7
20210805055322 78 228 3.0 11.0 0.00 0.00 0.00 63 1020.4
20210805054823 78 218 3.0 11.0 0.00 0.00 0.00 63 1020.4
20210805054528 77 207 4.0 10.0 0.00 0.00 0.00 63 1008.1
20210805054326 78 207 5.0 10.0 0.00 0.00 0.00 63 1020.5
20210805053825 78 210 1.0 7.0 0.00 0.00 0.00 62 1020.5
20210805053323 78 199 0.0 1.0 0.00 0.00 0.00 62 1020.4
20210805053240 78 148 0.0 9.0 0.00 0.00 0.00 62 1008.1
20210805052819 79 218 0.0 9.0 0.00 0.00 0.00 62 1020.4
20210805052318 79 245 0.0 8.0 0.00 0.00 0.00 61 1020.3
20210805051819 79 225 0.0 7.0 0.00 0.00 0.00 61 1020.4
20210805051639 78 208 0.0 10.0 0.00 0.00 0.00 61 1008.1
20210805051333 79 243 0.0 10.0 0.00 0.00 0.00 61 1020.4
20210805050833 79 291 1.0 10.0 0.00 0.00 0.00 61 1020.4
20210805050330 79 235 1.0 7.0 0.00 0.00 0.00 61 1020.4
20210805050101 79 204 1.0 8.0 0.00 0.00 0.00 60 1008.0
20210805045829 79 223 2.0 10.0 0.00 0.00 0.00 60 1020.2
20210805045325 79 189 1.0 10.0 0.00 0.00 0.00 60 1020.2
20210805044823 80 216 4.0 10.0 0.00 0.00 0.00 60 1020.2
20210805044516 79 198 3.0 10.0 0.00 0.00 0.00 60 1008.0
20210805044322 80 219 3.0 10.0 0.00 0.00 0.00 60 1020.2
20210805043822 80 198 2.0 12.0 0.00 0.00 0.00 60 1020.2
20210805043318 80 275 3.0 12.0 0.00 0.00 0.00 59 1020.3
20210805043115 80 206 2.0 11.0 0.00 0.00 0.00 59 1007.9
20210805042816 80 218 2.0 11.0 0.00 0.00 0.00 59 1020.1
20210805042316 81 219 3.0 13.0 0.00 0.00 0.00 59 1020.1
20210805041835 81 216 6.0 13.0 0.00 0.00 0.00 59 1020.1
20210805041543 80 210 2.0 12.0 0.00 0.00 0.00 59 1007.9
20210805041317 81 207 3.0 10.0 0.00 0.00 0.00 59 1020.0
20210805040822 81 212 2.0 10.0 0.00 0.00 0.00 58 1020.0
20210805040323 81 216 4.0 10.0 0.00 0.00 0.00 58 1019.9
20210805040020 80 221 2.0 10.0 0.00 0.00 0.00 58 1007.7
20210805035819 81 194 2.0 10.0 0.00 0.00 0.00 58 1019.8
20210805035334 81 218 4.0 11.0 0.00 0.00 0.00 57 1019.7
20210805034831 80 216 3.0 11.0 0.00 0.00 0.00 56 1019.7
20210805034658 79 214 2.0 12.0 0.00 0.00 0.00 54 1007.7
20210805034326 79 237 4.0 11.0 0.00 0.00 0.00 53 1019.6
20210805033825 79 326 0.0 0.0 0.00 0.00 0.00 40 1019.5
20210805033323 79 325 0.0 0.0 0.00 0.00 0.00 40 1019.3
20210805033127 79 326 0.0 0.0 0.00 0.00 0.00 40 1007.3
20210805032825 79 326 0.0 0.0 0.00 0.00 0.00 39 1019.2
20210805032325 79 325 0.0 0.0 0.00 0.00 0.00 39 1019.2
20210805031825 80 326 0.0 0.0 0.00 0.00 0.00 38 1019.1
20210805031606 79 326 0.0 0.0 0.00 0.00 0.00 38 1007.1
20210805031326 80 326 0.0 0.0 0.00 0.00 0.00 38 1019.1
20210805030829 80 326 0.0 0.0 0.00 0.00 0.00 37 1019.0
20210805020823 89 326 0.0 0.0 0.00 0.00 0.00 30 1018.2
20210805020324 90 326 0.0 0.0 0.00 0.00 0.00 29 1018.1
20210805020219 90 326 0.0 0.0 0.00 0.00 0.00 29 1005.9
20210805015822 91 27 0.0 0.0 0.00 0.00 0.00 29 1018.1
20210805015321 91 27 0.0 0.0 0.00 0.00 0.00 28 1018.1
20210805014816 92 27 0.0 0.0 0.00 0.00 0.00 27 1018.1
20210805014516 92 27 0.0 0.0 0.00 0.00 0.00 26 1005.9
20210805014315 93 27 0.0 0.0 0.00 0.00 0.00 26 1018.0
20210805013834 93 27 0.0 0.0 0.00 0.00 0.00 25 1018.0
20210805013333 94 27 0.0 0.0 0.00 0.00 0.00 25 1018.0
20210805013136 93 27 0.0 0.0 0.00 0.00 0.00 25 1005.7
20210805012831 94 27 0.0 0.0 0.00 0.00 0.00 25 1017.9
20210805012332 94 27 0.0 0.0 0.00 0.00 0.00 25 1017.9
20210805011816 94 27 0.0 1.0 0.00 0.00 0.00 24 1017.8
20210805011709 94 27 0.0 1.0 0.00 0.00 0.00 24 1005.6
20210805011502 94 27 0.0 1.0 0.00 0.00 0.00 24 1005.6
20210805011319 94 27 0.0 2.0 0.00 0.00 0.00 24 1017.6
20210805010824 95 23 0.0 2.0 0.00 0.00 0.00 24 1017.6
20210805010328 95 46 0.0 1.0 0.00 0.00 0.00 24 1017.5
20210805010254 94 46 0.0 2.0 0.00 0.00 0.00 24 1005.2
20210805005831 95 33 0.0 2.0 0.00 0.00 0.00 24 1017.5
20210805005315 95 56 0.0 1.0 0.00 0.00 0.00 24 1017.4
20210805004816 95 58 0.0 1.0 0.00 0.00 0.00 23 1017.4
20210805004536 95 58 0.0 1.0 0.00 0.00 0.00 23 1005.3
20210805004318 96 37 0.0 1.0 0.00 0.00 0.00 22 1017.5
20210805003820 96 37 0.0 3.0 0.00 0.00 0.00 23 1017.5
20210805003330 96 61 1.0 3.0 0.00 0.00 0.00 22 1017.5
20210805003132 96 60 0.0 3.0 0.00 0.00 0.00 22 1005.3
20210805002828 97 64 0.0 3.0 0.00 0.00 0.00 21 1017.5
20210805002327 97 18 0.0 3.0 0.00 0.00 0.00 23 1017.5
20210805001828 97 33 1.0 3.0 0.00 0.00 0.00 23 1017.5
20210805001707 97 13 0.0 2.0 0.00 0.00 0.00 23 1005.3
20210805001331 97 35 0.0 2.0 0.00 0.00 0.00 22 1017.5
20210805000816 97 23 0.0 3.0 0.00 0.00 0.00 21 1017.6
20210805000318 98 59 1.0 4.0 0.00 0.00 0.00 21 1017.6
20210805000033 97 52 0.0 4.0 0.00 0.00 0.00 21 1005.5
20210804235822 98 88 0.0 4.0 0.00 0.00 0.00 21 1017.5
20210804235322 98 18 0.0 6.0 0.00 0.00 0.00 21 1017.6
20210804234817 99 18 1.0 6.0 0.00 0.00 0.00 21 1017.6
20210804234700 98 358 0.0 4.0 0.00 0.00 0.00 21 1005.4
20210804234320 99 349 1.0 4.0 0.00 0.00 0.00 21 1017.6
20210804233825 99 334 2.0 5.0 0.00 0.00 0.00 21 1017.6
20210804233329 99 324 1.0 12.0 0.00 0.00 0.00 20 1017.6
20210804233053 99 322 1.0 12.0 0.00 0.00 0.00 21 1005.4
20210804232832 99 358 3.0 12.0 0.00 0.00 0.00 21 1017.5
20210804232333 100 331 4.0 11.0 0.00 0.00 0.00 20 1017.5
20210804231834 100 326 1.0 5.0 0.00 0.00 0.00 21 1017.5
20210804231544 100 335 1.0 9.0 0.00 0.00 0.00 20 1005.4
20210804231316 100 349 1.0 9.0 0.00 0.00 0.00 20 1017.5
20210804230815 100 358 3.0 11.0 0.00 0.00 0.00 21 1017.6
20210804230335 100 2 2.0 6.0 0.00 0.00 0.00 21 1017.6
20210804230042 100 326 1.0 6.0 0.00 0.00 0.00 21 1005.5
20210804225834 100 327 1.0 5.0 0.00 0.00 0.00 21 1017.6
20210804225333 100 18 0.0 5.0 0.00 0.00 0.00 21 1017.6
20210804224816 101 67 1.0 5.0 0.00 0.00 0.00 21 1017.7
20210804224523 100 43 0.0 3.0 0.00 0.00 0.00 21 1005.6
20210804224318 101 31 1.0 3.0 0.00 0.00 0.00 21 1017.7
20210804223834 101 342 1.0 6.0 0.00 0.00 0.00 20 1017.7
20210804223335 101 30 1.0 8.0 0.00 0.00 0.00 20 1017.9
20210804223142 100 360 1.0 8.0 0.00 0.00 0.00 19 1005.8
20210804222817 101 360 1.0 8.0 0.00 0.00 0.00 19 1017.9
20210804222320 101 331 0.0 9.0 0.00 0.00 0.00 19 1017.9
20210804221818 101 18 1.0 9.0 0.00 0.00 0.00 18 1018.1
20210804221554 100 360 2.0 9.0 0.00 0.00 0.00 18 1006.0
20210804221335 101 42 1.0 9.0 0.00 0.00 0.00 19 1018.1
20210804220835 101 3 1.0 5.0 0.00 0.00 0.00 18 1018.1
20210804220314 101 18 1.0 5.0 0.00 0.00 0.00 18 1018.2
20210804214817 100 29 1.0 12.0 0.00 0.00 0.00 19 1018.3
20210804214719 100 27 1.0 15.0 0.00 0.00 0.00 19 1018.4
20210804214627 100 341 1.0 15.0 0.00 0.00 0.00 18 1018.4
20210804214529 100 341 1.0 15.0 0.00 0.00 0.00 19 1018.4
20210804214433 100 316 1.0 15.0 0.00 0.00 0.00 18 1018.4
20210804214331 100 345 2.0 15.0 0.00 0.00 0.00 18 1018.4
20210804214214 100 322 4.0 15.0 0.00 0.00 0.00 19 1018.4
20210804214119 100 321 6.0 15.0 0.00 0.00 0.00 19 1018.4
20210804183332 95 349 1.0 8.0 0.00 0.00 0.00 31 1020.5
20210804183234 95 347 2.0 11.0 0.00 0.00 0.00 30 1020.4
20210804183116 95 18 2.0 11.0 0.00 0.00 0.00 31 1020.5
20210804183036 95 349 1.0 11.0 0.00 0.00 0.00 31 1020.5
20210804182933 95 349 1.0 11.0 0.00 0.00 0.00 31 1020.5
20210804182829 95 334 1.0 11.0 0.00 0.00 0.00 31 1020.4
20210804182730 95 2 2.0 11.0 0.00 0.00 0.00 31 1020.5
20210804182631 95 347 3.0 11.0 0.00 0.00 0.00 30 1020.6
20210804182532 95 322 4.0 11.0 0.00 0.00 0.00 30 1020.6
20210804182435 95 357 4.0 11.0 0.00 0.00 0.00 31 1020.6
20210804182319 95 307 2.0 7.0 0.00 0.00 0.00 31 1020.6
20210804182220 95 336 2.0 5.0 0.00 0.00 0.00 31 1020.6
20210804182121 95 335 2.0 5.0 0.00 0.00 0.00 31 1020.7
20210804182039 95 356 2.0 5.0 0.00 0.00 0.00 31 1020.7
20210804181925 95 348 1.0 5.0 0.00 0.00 0.00 31 1020.6
20210804181828 94 289 1.0 5.0 0.00 0.00 0.00 31 1020.6
20210804181750 94 350 1.0 9.0 0.00 0.00 0.00 31 1020.7
20210804181628 94 348 1.0 9.0 0.00 0.00 0.00 31 1020.7
20210804181533 94 54 1.0 9.0 0.00 0.00 0.00 30 1020.6
20210804181434 94 47 1.0 9.0 0.00 0.00 0.00 31 1020.7
20210804181328 94 18 1.0 9.0 0.00 0.00 0.00 31 1020.7
20210804181227 94 18 1.0 9.0 0.00 0.00 0.00 30 1020.7
20210804181129 94 18 1.0 9.0 0.00 0.00 0.00 31 1020.7
20210804181031 94 4 2.0 9.0 0.00 0.00 0.00 30 1020.7
20210804180915 94 13 2.0 9.0 0.00 0.00 0.00 30 1020.7
20210804180816 94 13 1.0 6.0 0.00 0.00 0.00 30 1020.7
20210804180718 94 13 1.0 6.0 0.00 0.00 0.00 30 1020.7
20210804180619 94 13 1.0 6.0 0.00 0.00 0.00 30 1020.7
20210804180523 94 358 1.0 6.0 0.00 0.00 0.00 30 1020.7
20210804180424 94 13 1.0 6.0 0.00 0.00 0.00 30 1020.7
20210804180330 94 8 2.0 6.0 0.00 0.00 0.00 30 1020.7
20210804180240 94 2 1.0 10.0 0.00 0.00 0.00 30 1008.8
20210804180232 94 356 2.0 4.0 0.00 0.00 0.00 30 1020.7
20210804180133 94 359 1.0 4.0 0.00 0.00 0.00 30 1020.7
20210804180035 94 13 1.0 10.0 0.00 0.00 0.00 30 1020.7
20210804175915 94 4 1.0 10.0 0.00 0.00 0.00 29 1020.7
20210804175815 94 2 1.0 10.0 0.00 0.00 0.00 30 1020.7
20210804175722 94 353 1.0 10.0 0.00 0.00 0.00 29 1020.7
20210804175644 94 331 1.0 10.0 0.00 0.00 0.00 29 1020.7
20210804175602 94 358 1.0 10.0 0.00 0.00 0.00 29 1020.7
20210804175526 94 343 2.0 13.0 0.00 0.00 0.00 29 1020.7
20210804175334 94 329 4.0 13.0 0.00 0.00 0.00 29 1020.7
20210804175234 94 349 3.0 13.0 0.00 0.00 0.00 28 1020.7
20210804175116 94 349 1.0 13.0 0.00 0.00 0.00 28 1020.7
20210804175018 94 356 1.0 13.0 0.00 0.00 0.00 27 1020.7
20210804174921 94 6 2.0 13.0 0.00 0.00 0.00 27 1020.7
20210804174821 94 358 5.0 13.0 0.00 0.00 0.00 27 1020.7
20210804174722 94 47 6.0 13.0 0.00 0.00 0.00 28 1020.7
20210804174717 93 326 2.0 8.0 0.00 0.00 0.00 29 1008.9
20210804174621 94 325 4.0 12.0 0.00 0.00 0.00 29 1020.8
20210804174525 94 340 2.0 8.0 0.00 0.00 0.00 29 1020.8
20210804174423 94 2 2.0 8.0 0.00 0.00 0.00 30 1020.8
20210804174329 94 360 2.0 8.0 0.00 0.00 0.00 30 1020.8
20210804174231 93 328 1.0 8.0 0.00 0.00 0.00 30 1020.8
20210804174134 93 4 1.0 8.0 0.00 0.00 0.00 31 1020.8
20210804174017 93 327 1.0 8.0 0.00 0.00 0.00 31 1020.9
20210804173915 93 8 2.0 8.0 0.00 0.00 0.00 31 1020.9
20210804173818 93 360 2.0 8.0 0.00 0.00 0.00 31 1020.8
20210804173723 93 100 1.0 8.0 0.00 0.00 0.00 31 1020.8
20210804173625 93 6 1.0 5.0 0.00 0.00 0.00 30 1020.9
20210804173528 93 73 1.0 5.0 0.00 0.00 0.00 30 1020.9
20210804173430 93 86 1.0 5.0 0.00 0.00 0.00 31 1020.9
20210804173329 93 85 1.0 5.0 0.00 0.00 0.00 31 1020.9
20210804173231 93 29 1.0 5.0 0.00 0.00 0.00 31 1020.9
20210804173206 93 358 1.0 5.0 0.00 0.00 0.00 32 1008.9
20210804173117 93 39 1.0 5.0 0.00 0.00 0.00 32 1020.9
20210804173037 93 27 1.0 3.0 0.00 0.00 0.00 32 1020.9
20210804172916 93 13 1.0 3.0 0.00 0.00 0.00 32 1020.8
20210804172818 93 356 1.0 3.0 0.00 0.00 0.00 32 1020.9
20210804172720 93 46 1.0 2.0 0.00 0.00 0.00 31 1020.9
20210804172622 93 27 0.0 2.0 0.00 0.00 0.00 31 1020.9
20210804172545 93 360 0.0 2.0 0.00 0.00 0.00 31 1020.9
20210804172415 93 343 0.0 3.0 0.00 0.00 0.00 32 1020.8
20210804172318 93 343 0.0 3.0 0.00 0.00 0.00 32 1020.8
20210804172221 93 343 0.0 3.0 0.00 0.00 0.00 31 1020.9
20210804172122 93 18 1.0 3.0 0.00 0.00 0.00 31 1020.8
20210804172021 93 355 1.0 3.0 0.00 0.00 0.00 31 1020.8
20210804171917 93 3 0.0 3.0 0.00 0.00 0.00 32 1020.8
20210804171832 93 352 1.0 3.0 0.00 0.00 0.00 32 1020.8
20210804171716 92 343 1.0 3.0 0.00 0.00 0.00 32 1020.8
20210804171634 92 330 0.0 3.0 0.00 0.00 0.00 32 1020.8
20210804171528 92 71 0.0 3.0 0.00 0.00 0.00 32 1020.8
20210804171430 92 72 1.0 3.0 0.00 0.00 0.00 32 1020.8
20210804171329 92 73 0.0 3.0 0.00 0.00 0.00 31 1020.8
20210804171231 92 13 0.0 3.0 0.00 0.00 0.00 31 1020.8
20210804171116 92 8 0.0 3.0 0.00 0.00 0.00 32 1020.8
20210804171018 92 7 0.0 3.0 0.00 0.00 0.00 32 1020.8
20210804170920 92 8 1.0 3.0 0.00 0.00 0.00 33 1020.8
20210804170821 92 144 1.0 3.0 0.00 0.00 0.00 31 1020.9
20210804170722 92 13 0.0 2.0 0.00 0.00 0.00 32 1020.8
20210804170625 92 13 0.0 2.0 0.00 0.00 0.00 32 1020.9
20210804170531 92 13 0.0 2.0 0.00 0.00 0.00 32 1020.9
20210804170434 92 13 1.0 2.0 0.00 0.00 0.00 33 1020.9
20210804170333 92 13 0.0 2.0 0.00 0.00 0.00 33 1020.9
20210804170215 92 3 0.0 2.0 0.00 0.00 0.00 34 1020.8
20210804170117 92 3 0.0 3.0 0.00 0.00 0.00 33 1020.9
20210804170019 92 3 0.0 3.0 0.00 0.00 0.00 33 1020.9
20210804165928 92 358 0.0 3.0 0.00 0.00 0.00 33 1020.9
20210804165825 92 358 0.0 3.0 0.00 0.00 0.00 34 1020.8
20210804165727 92 358 0.0 3.0 0.00 0.00 0.00 33 1020.8
20210804165628 92 3 0.0 3.0 0.00 0.00 0.00 34 1020.8
20210804165531 92 82 0.0 3.0 0.00 0.00 0.00 33 1020.8
20210804165434 92 82 1.0 3.0 0.00 0.00 0.00 34 1020.8
20210804165319 91 83 1.0 3.0 0.00 0.00 0.00 33 1020.8
20210804165220 91 87 0.0 2.0 0.00 0.00 0.00 34 1020.8
20210804165123 91 32 0.0 2.0 0.00 0.00 0.00 33 1020.8
20210804165024 91 32 0.0 2.0 0.00 0.00 0.00 33 1020.8
20210804164923 91 32 0.0 2.0 0.00 0.00 0.00 33 1020.8
20210804164818 91 32 0.0 2.0 0.00 0.00 0.00 34 1020.8
20210804164720 91 32 0.0 2.0 0.00 0.00 0.00 35 1020.7
20210804164625 91 32 0.0 2.0 0.00 0.00 0.00 35 1020.7
20210804164526 91 5 0.0 2.0 0.00 0.00 0.00 35 1020.7
20210804164423 91 5 0.0 2.0 0.00 0.00 0.00 35 1020.7
20210804164325 91 5 0.0 2.0 0.00 0.00 0.00 36 1020.7
20210804164222 91 5 0.0 2.0 0.00 0.00 0.00 36 1020.7
20210804164124 91 149 0.0 0.0 0.00 0.00 0.00 37 1020.7
20210804164030 91 149 0.0 0.0 0.00 0.00 0.00 37 1020.7
20210804163918 91 148 0.0 0.0 0.00 0.00 0.00 37 1020.7
20210804163839 91 149 0.0 0.0 0.00 0.00 0.00 38 1020.7
20210804163729 91 148 0.0 0.0 0.00 0.00 0.00 37 1020.7
20210804163632 90 148 0.0 0.0 0.00 0.00 0.00 39 1020.7
20210804163533 90 149 0.0 0.0 0.00 0.00 0.00 39 1020.7
20210804163435 90 149 0.0 0.0 0.00 0.00 0.00 38 1020.7
20210804163317 90 149 0.0 0.0 0.00 0.00 0.00 38 1020.7
20210804163240 90 149 0.0 0.0 0.00 0.00 0.00 39 1020.7
20210804163115 90 149 0.0 0.0 0.00 0.00 0.00 39 1020.7
20210804163035 89 149 0.0 0.0 0.00 0.00 0.00 40 1008.7
20210804163018 90 149 0.0 0.0 0.00 0.00 0.00 40 1020.7
20210804162944 90 149 0.0 0.0 0.00 0.00 0.00 40 1020.7
20210804162816 90 148 0.0 0.0 0.00 0.00 0.00 41 1020.7
20210804162723 90 149 0.0 0.0 0.00 0.00 0.00 41 1020.8
20210804162650 90 149 0.0 0.0 0.00 0.00 0.00 41 1020.8